GEOSCAN 6 (RS92S6)

Last updated on Tue Aug 25 2026 00:03:14 GMT+0000 (Coordinated Universal Time)

1 64879U 25155D 26236.62292142 .00009667 00000+0 32168-3 0 9999 2 64879 97.4618 205.5257 0005601 304.5016 55.5696 15.31346994 91234
UTC large
Height (km)
Speed (km/s)
/
Latitude / Longitude
Inclination (degrees)
Orbital Period (minutes)
Azimuth
Elevation
Range (km)
Doppler Factor

Next 0 passes for location: London (51.5072 / 0.1276)

No passes found over London.
GEOSCAN 6 (RS92S6)